OBJECT H, 44886

Orbit data source: Space-Track

You're viewing an Uncataloged Satellite

Recently launched and/or uncataloged satellites may have evolving metadata. Metadata may include but not limited to: Owner, Maufacturer, Bus, Motor, and Mission.

OBJECT H, 44886 is a satellite in SSO that was launched on Fri, 20 Dec 2019 UTC via a CHANG ZHENG 4B launch vehicle from the Taiyaun Space Center, China (TSC). Unknown objects in Earth's orbit typically refer to objects detected orbiting the Earth but have not yet been identified or cataloged. These objects could be anything from previously untracked satellites, spent rocket stages, debris from satellite collisions, or even natural meteoroids temporarily captured by Earth's gravity.

Loading next visibility...
Identifier
44886, 2019-093H
Orbit
SSO
Country
Flag of TBDTBD
Related business
None
Manufacturer
Unknown
Mission
Operational Commercial Imaging
Bus & Motor
Unknown
Mass
Unknown
Launch date (UTC)
2019-12-20 (7 years ago)
Launch vehicle
CHANG ZHENG 4B
Launch site
Taiyaun Space Center, China (TSC)
Object type
Unknown
Shape & HBR
Box + 2 Pan, Unknown HBR
Radar Cross Section
0.195 m², Medium (>0.1 m² and < 1m²)

Expand to show TLE details & history
Last TLE update: 8 hours ago

TLE from 8 hours ago
0 OBJECT H
1 44886U 19093H   26208.56077977  .00001365  00000-0  12901-3 0  9999
2 44886  97.8012 296.5189 0010340 292.9943  67.0186 14.95325866358211
Epoch: 2026-07-27T13:27Z
TLE epoch observation values (Epoch: 2026-07-27T13:27:31.372Z)
Latitude
-0.00005°
Longitude
149.39559°
Altitude
581.603 km
Speed
7.571 km/s
True Right ascension
19h 46m 04s
True Declination
0° 00' 00"
Sunlit
Object was in full shadow at epoch
Visualization orbit readout
Latitude
Unknown
Longitude
Unknown
Altitude
Unknown
Speed
Unknown
Apparent Right ascension
Unknown
Apparent Declination
Unknown
Sunlit
N/A
Visualization observer readout
Local Sidereal Time
10:31:36
Azimuth
Unknown
Elevation
Unknown
Doppler factor
Unknown
Orbital elements
Apogee altitude
585.57 km
Perigee altitude
571.184 km
Semi-major axis
6,956.514 km
Eccentricity
0.00103
Inclination
97.8012°
RAAN
296.5189°
Arg. of periapsis
292.9943°
True anomaly
67.12774°
Mean anomaly
67.0186°
Eccentric anomaly
67.07316°
Mean motion
3.74072 °/min
Orbital period
96.24 mins
BSTAR
0.00012901
Loading maneuver chart data...
Computing Atmospheric mass density...
Loading historical data...
Loading historical data...
Loading historical data...
Loading historical data...
Loading historical data...
Loading historical data...
Loading historical data...

Documentation

Showing up to 5 results
|